Powrót do katalogu

ARIANE 44L+3 R/B

AktywnyHEO
NORAD 23950·ROCKET BODY·🇫🇷 France

Wystrzelony Jul 9, 1996 z Guiana Space Centre

Loading…

Następne Przeloty (najbliższe 24 godziny)

TLE

ŚwieżeSource: Space-Track

Epoka: Sep 14, 2026, 17:06 UTC

1 23950U 96040C   26257.71310952  .00000663  00000-0  56031-3 0  9991
2 23950   6.7680 112.7082 6888445 328.3282   4.4365  2.74844461273745

Śledź ARIANE 44L+3 R/B w czasie rzeczywistym z AllMySat

Download on the App Store